This demonstration page uses our WeatherBlox Daily Observations layout. Learn more.

Left ArrowRight Arrow

Hourly Observations for May 24, 2021

Temp ( °F °C ) Dew Point ( °F °C ) Humidity (%) Winds ( mph kmh ) Pressure ( in mb ) Visibility ( mi km ) Precip ( " mm )
12:53 am 00:53 Clear 69 20.6 66 18.9 90 90 N N/A 30.15 1021 10 16 N/A
1:53 am 01:53 Clear 67 19.4 65 18.3 93 93 N N/A 30.14 1021 8 13 N/A
2:53 am 02:53 Mostly Cloudy 66 18.9 64 17.8 93 93 N N/A 30.14 1021 8 13 N/A
3:53 am 03:53 Mostly Clear with Mist and Fog 65 18.3 64 17.8 97 97 N N/A 30.13 1020 6 10 N/A
4:53 am 04:53 Clear 64 17.8 62 16.7 93 93 N N/A 30.14 1021 8 13 N/A
5:50 am 05:50 Clear with Mist and Fog 63 17 63 17 100 100 N N/A 30.15 1021 3 4 N/A
5:53 am 05:53 Clear with Mist and Fog 63 17.2 62 16.7 97 97 N N/A 30.14 1021 3 5 N/A
6:29 am 06:29 Sunny with Mist and Fog 63 17.2 62 16.7 97 97 N N/A 30.16 1021 3 4 N/A
6:36 am 06:36 Sunny with Mist and Fog 64 17.8 63 17.2 96 96 N N/A 30.16 1021 4 6 N/A
6:53 am 06:53 Sunny with Mist and Fog 63 17.2 62 16.7 97 97 N N/A 30.16 1021 3 5 N/A
7:53 am 07:53 Mostly Cloudy with Mist and Fog 68 20 66 18.9 93 93 N N/A 30.18 1022 6 10 N/A
8:53 am 08:53 Mostly Cloudy 72 22.2 65 18.3 79 79 N N/A 30.19 1022 9 14 N/A
9:53 am 09:53 Mostly Sunny 75 23.9 65 18.3 71 71 N N/A 30.20 1023 10 16 N/A
10:53 am 10:53 Sunny 80 26.7 65 18.3 60 60 N N/A 30.19 1022 10 16 N/A
11:53 am 11:53 Sunny 83 28.3 66 18.9 57 57 W 7 11 30.18 1022 10 16 N/A
12:53 pm 12:53 Sunny 85 29.4 63 17.2 48 48 VRB 7 11 30.16 1022 10 16 N/A
1:53 pm 13:53 Mostly Sunny 88 31.1 61 16.1 40 40 VRB 6 9 30.14 1021 10 16 N/A
2:53 pm 14:53 Mostly Sunny 88 31.1 61 16.1 40 40 VRB 6 9 30.13 1020 10 16 N/A
3:53 pm 15:53 Sunny 88 31.1 60 15.6 39 39 VRB 6 9 30.12 1020 10 16 N/A
4:53 pm 16:53 Mostly Sunny 87 30.6 61 16.1 42 42 VRB 6 9 30.10 1019 10 16 N/A
5:53 pm 17:53 Sunny 87 30.6 60 15.6 40 40 WSW 6 9 30.10 1019 10 16 N/A
6:53 pm 18:53 Sunny 85 29.4 61 16.1 45 45 WSW 3 6 30.09 1019 10 16 N/A
7:53 pm 19:53 Sunny 78 25.6 65 18.3 64 64 N N/A 30.09 1019 10 16 N/A
8:53 pm 20:53 Clear 75 23.9 65 18.3 71 71 N N/A 30.10 1019 10 16 N/A
9:53 pm 21:53 Clear 72 22.2 65 18.3 79 79 N N/A 30.11 1020 10 16 N/A
10:53 pm 22:53 Clear 69 20.6 64 17.8 84 84 N N/A 30.13 1020 9 14 N/A
11:53 pm 23:53 Clear 68 20 64 17.8 87 87 N N/A 30.13 1020 8 13 N/A

Powered by AerisWeather